Time,TemperatureF,DewpointF,PressureIn,WindDirection,WindDirectionDegrees,WindSpeedMPH,WindSpeedGustMPH,Humidity,HourlyPrecipIn,Conditions,Clouds,dailyrainin,SoftwareType,DateUTC
2013-06-25 00:02:00,52.9,50.6,27.26,SE,135,0.4,0.4,92,0.01,,,0.00,WUHU216HW,2013-06-25 07:02:00,
2013-06-25 00:07:00,52.9,50.6,27.26,South,180,0.0,0.4,92,0.01,,,0.00,WUHU216HW,2013-06-25 07:07:00,
2013-06-25 00:12:00,52.9,50.6,27.26,SE,135,0.0,0.2,92,0.01,,,0.00,WUHU216HW,2013-06-25 07:12:00,
2013-06-25 00:17:00,52.9,50.6,27.27,SSE,158,0.0,0.7,92,0.01,,,0.00,WUHU216HW,2013-06-25 07:17:00,
2013-06-25 00:22:00,52.9,51.0,27.27,SE,135,0.0,0.7,93,0.00,,,0.00,WUHU216HW,2013-06-25 07:22:00,
2013-06-25 00:27:00,52.9,51.0,27.27,SSW,203,0.7,1.1,93,0.00,,,0.00,WUHU216HW,2013-06-25 07:27:00,
2013-06-25 00:32:00,52.7,50.4,27.27,SE,135,0.0,1.1,92,0.00,,,0.00,WUHU216HW,2013-06-25 07:32:00,
2013-06-25 00:37:00,52.7,50.8,27.27,SE,135,0.2,1.1,93,0.00,,,0.00,WUHU216HW,2013-06-25 07:37:00,
2013-06-25 00:42:00,52.6,50.6,27.27,SW,225,0.4,1.8,93,0.00,,,0.00,WUHU216HW,2013-06-25 07:42:00,
2013-06-25 00:47:00,52.4,50.4,27.27,SE,135,0.4,1.8,93,0.00,,,0.00,WUHU216HW,2013-06-25 07:47:00,
2013-06-25 00:52:00,52.2,49.9,27.27,South,180,0.4,1.1,92,0.00,,,0.00,WUHU216HW,2013-06-25 07:52:00,
2013-06-25 00:57:00,52.0,49.7,27.27,SSW,203,0.2,1.1,92,0.00,,,0.00,WUHU216HW,2013-06-25 07:57:00,
2013-06-25 01:02:00,51.8,49.5,27.27,SE,135,0.4,0.4,92,0.00,,,0.00,WUHU216HW,2013-06-25 08:02:00,
2013-06-25 01:07:00,51.7,49.1,27.27,SE,135,0.0,0.4,91,0.00,,,0.00,WUHU216HW,2013-06-25 08:07:00,
2013-06-25 01:12:00,51.5,48.9,27.27,SE,135,0.0,0.4,91,0.00,,,0.00,WUHU216HW,2013-06-25 08:12:00,
2013-06-25 01:17:00,51.5,48.9,27.27,SE,135,0.0,0.0,91,0.00,,,0.00,WUHU216HW,2013-06-25 08:17:00,
2013-06-25 01:22:00,51.3,48.7,27.27,SE,135,0.4,0.7,91,0.00,,,0.00,WUHU216HW,2013-06-25 08:22:00,
2013-06-25 01:27:00,51.1,48.5,27.27,SE,135,0.0,0.9,91,0.00,,,0.00,WUHU216HW,2013-06-25 08:27:00,
2013-06-25 01:32:00,51.1,48.5,27.27,SE,135,0.0,0.9,91,0.00,,,0.00,WUHU216HW,2013-06-25 08:32:00,
2013-06-25 01:37:00,50.9,48.3,27.27,SE,135,0.0,0.0,91,0.00,,,0.00,WUHU216HW,2013-06-25 08:37:00,
2013-06-25 01:42:00,50.9,48.3,27.27,SE,135,0.0,0.0,91,0.00,,,0.00,WUHU216HW,2013-06-25 08:42:00,
2013-06-25 01:47:00,50.8,48.2,27.27,SE,135,0.0,0.0,91,0.00,,,0.00,WUHU216HW,2013-06-25 08:47:00,
2013-06-25 01:52:00,50.6,48.0,27.27,SE,135,0.0,0.0,91,0.00,,,0.00,WUHU216HW,2013-06-25 08:52:00,
2013-06-25 01:57:00,50.4,47.8,27.27,SE,135,0.0,0.0,91,0.00,,,0.00,WUHU216HW,2013-06-25 08:57:00,
2013-06-25 02:02:00,50.2,47.6,27.27,SE,135,0.0,0.0,91,0.00,,,0.00,WUHU216HW,2013-06-25 09:02:00,
2013-06-25 02:07:00,50.0,47.4,27.27,SE,135,0.0,0.0,91,0.00,,,0.00,WUHU216HW,2013-06-25 09:07:00,
2013-06-25 02:12:00,50.0,47.4,27.28,SE,135,0.2,0.2,91,0.00,,,0.00,WUHU216HW,2013-06-25 09:12:00,
2013-06-25 02:17:00,50.0,47.4,27.27,SE,135,0.2,0.2,91,0.00,,,0.00,WUHU216HW,2013-06-25 09:17:00,
2013-06-25 02:22:00,49.9,47.6,27.28,SE,135,0.0,1.1,92,0.00,,,0.00,WUHU216HW,2013-06-25 09:22:00,
2013-06-25 02:27:00,49.9,47.3,27.28,ESE,113,0.0,1.1,91,0.00,,,0.00,WUHU216HW,2013-06-25 09:27:00,
2013-06-25 02:32:00,49.7,47.2,27.28,ESE,113,0.0,0.4,91,0.00,,,0.00,WUHU216HW,2013-06-25 09:32:00,
2013-06-25 02:37:00,49.7,47.2,27.28,ESE,113,0.2,0.2,91,0.00,,,0.00,WUHU216HW,2013-06-25 09:37:00,
2013-06-25 02:42:00,49.5,47.3,27.28,SE,135,0.7,0.9,92,0.00,,,0.00,WUHU216HW,2013-06-25 09:42:00,
2013-06-25 02:47:00,49.3,47.1,27.28,SE,135,0.7,0.9,92,0.00,,,0.00,WUHU216HW,2013-06-25 09:47:00,
2013-06-25 02:52:00,49.3,46.8,27.28,ESE,113,0.2,0.7,91,0.00,,,0.00,WUHU216HW,2013-06-25 09:52:00,
2013-06-25 02:57:00,49.1,46.6,27.28,ESE,113,0.0,0.4,91,0.00,,,0.00,WUHU216HW,2013-06-25 09:57:00,
2013-06-25 03:02:00,49.1,46.6,27.28,ESE,113,0.0,0.0,91,0.00,,,0.00,WUHU216HW,2013-06-25 10:02:00,
2013-06-25 03:07:00,49.0,46.4,27.28,SE,135,0.2,0.2,91,0.00,,,0.00,WUHU216HW,2013-06-25 10:07:00,
2013-06-25 03:12:00,48.8,46.3,27.28,ESE,113,0.0,0.4,91,0.00,,,0.00,WUHU216HW,2013-06-25 10:12:00,
2013-06-25 03:17:00,48.6,46.2,27.28,SE,135,0.0,0.4,91,0.00,,,0.00,WUHU216HW,2013-06-25 10:17:00,
2013-06-25 03:22:00,48.6,46.2,27.29,SE,135,0.0,0.0,91,0.00,,,0.00,WUHU216HW,2013-06-25 10:22:00,
2013-06-25 03:27:00,48.6,46.2,27.29,ESE,113,0.0,0.4,91,0.00,,,0.00,WUHU216HW,2013-06-25 10:27:00,
2013-06-25 03:32:00,48.4,46.0,27.29,ESE,113,0.0,0.4,91,0.00,,,0.00,WUHU216HW,2013-06-25 10:32:00,
2013-06-25 03:37:00,48.2,45.8,27.29,ESE,113,0.0,0.0,91,0.00,,,0.00,WUHU216HW,2013-06-25 10:37:00,
2013-06-25 03:42:00,48.2,45.8,27.29,ESE,113,0.0,0.0,91,0.00,,,0.00,WUHU216HW,2013-06-25 10:42:00,
2013-06-25 03:47:00,48.1,45.6,27.29,ESE,113,0.0,0.0,91,0.00,,,0.00,WUHU216HW,2013-06-25 10:47:00,
2013-06-25 03:52:00,48.1,45.6,27.29,ESE,113,0.0,0.0,91,0.00,,,0.00,WUHU216HW,2013-06-25 10:52:00,
2013-06-25 03:57:00,48.1,45.6,27.29,ESE,113,0.0,0.0,91,0.00,,,0.00,WUHU216HW,2013-06-25 10:57:00,
2013-06-25 04:02:00,47.9,45.5,27.29,ESE,113,0.0,0.0,91,0.00,,,0.00,WUHU216HW,2013-06-25 11:02:00,
2013-06-25 04:07:00,47.9,45.5,27.29,SE,135,0.9,0.9,91,0.00,,,0.00,WUHU216HW,2013-06-25 11:07:00,
2013-06-25 04:12:00,47.7,45.3,27.29,SE,135,0.0,0.9,91,0.00,,,0.00,WUHU216HW,2013-06-25 11:12:00,
2013-06-25 04:17:00,47.7,45.3,27.29,SE,135,0.0,0.0,91,0.00,,,0.00,WUHU216HW,2013-06-25 11:17:00,
2013-06-25 04:22:00,47.7,45.3,27.29,SE,135,0.0,0.0,91,0.00,,,0.00,WUHU216HW,2013-06-25 11:22:00,
2013-06-25 04:27:00,47.5,45.4,27.30,SE,135,0.4,0.4,92,0.00,,,0.00,WUHU216HW,2013-06-25 11:27:00,
2013-06-25 04:32:00,47.5,45.4,27.30,SE,135,0.4,0.9,92,0.00,,,0.00,WUHU216HW,2013-06-25 11:32:00,
2013-06-25 04:37:00,47.5,45.4,27.30,SE,135,0.0,0.9,92,0.00,,,0.00,WUHU216HW,2013-06-25 11:37:00,
2013-06-25 04:42:00,47.3,45.2,27.30,SE,135,0.4,0.7,92,0.00,,,0.00,WUHU216HW,2013-06-25 11:42:00,
2013-06-25 04:47:00,47.5,45.4,27.30,SE,135,0.0,0.4,92,0.00,,,0.00,WUHU216HW,2013-06-25 11:47:00,
2013-06-25 04:52:00,47.3,45.2,27.30,SE,135,0.0,0.4,92,0.00,,,0.00,WUHU216HW,2013-06-25 11:52:00,
2013-06-25 04:57:00,47.2,45.0,27.30,SE,135,0.0,0.0,92,0.00,,,0.00,WUHU216HW,2013-06-25 11:57:00,
2013-06-25 05:02:00,47.2,45.0,27.30,SE,135,0.0,0.0,92,0.00,,,0.00,WUHU216HW,2013-06-25 12:02:00,
2013-06-25 05:07:00,47.0,44.8,27.30,SE,135,0.0,0.0,92,0.00,,,0.00,WUHU216HW,2013-06-25 12:07:00,
2013-06-25 05:12:00,47.2,45.0,27.30,SE,135,0.7,0.9,92,0.00,,,0.00,WUHU216HW,2013-06-25 12:12:00,
2013-06-25 05:17:00,47.2,45.0,27.30,SE,135,0.0,0.9,92,0.00,,,0.00,WUHU216HW,2013-06-25 12:17:00,
2013-06-25 05:22:00,47.2,45.0,27.30,SE,135,0.0,0.4,92,0.00,,,0.00,WUHU216HW,2013-06-25 12:22:00,
2013-06-25 05:27:00,47.2,45.0,27.30,SE,135,0.0,0.2,92,0.00,,,0.00,WUHU216HW,2013-06-25 12:27:00,
2013-06-25 05:32:00,47.2,45.0,27.31,SE,135,0.4,0.4,92,0.00,,,0.00,WUHU216HW,2013-06-25 12:32:00,
2013-06-25 05:37:00,47.2,45.0,27.31,SE,135,1.1,1.1,92,0.00,,,0.00,WUHU216HW,2013-06-25 12:37:00,
2013-06-25 05:42:00,47.2,45.3,27.31,SE,135,0.0,1.1,93,0.00,,,0.00,WUHU216HW,2013-06-25 12:42:00,
2013-06-25 05:47:00,47.2,45.0,27.31,SE,135,0.0,0.7,92,0.00,,,0.00,WUHU216HW,2013-06-25 12:47:00,
2013-06-25 05:52:00,47.3,45.2,27.31,SE,135,0.0,0.0,92,0.00,,,0.00,WUHU216HW,2013-06-25 12:52:00,
2013-06-25 05:57:00,47.3,45.2,27.31,SE,135,0.0,0.0,92,0.00,,,0.00,WUHU216HW,2013-06-25 12:57:00,
2013-06-25 06:02:00,47.5,45.6,27.31,ESE,113,0.0,0.0,93,0.00,,,0.00,WUHU216HW,2013-06-25 13:02:00,
2013-06-25 06:07:00,47.7,45.8,27.31,ESE,113,0.0,0.0,93,0.00,,,0.00,WUHU216HW,2013-06-25 13:07:00,
2013-06-25 06:12:00,48.1,46.2,27.31,ESE,113,0.0,0.0,93,0.00,,,0.00,WUHU216HW,2013-06-25 13:12:00,
2013-06-25 06:17:00,48.4,46.5,27.31,SE,135,0.0,0.2,93,0.00,,,0.00,WUHU216HW,2013-06-25 13:17:00,
2013-06-25 06:22:00,49.1,47.2,27.30,SE,135,1.8,1.8,93,0.00,,,0.00,WUHU216HW,2013-06-25 13:22:00,
2013-06-25 06:27:00,49.7,47.7,27.30,SE,135,0.0,1.8,93,0.00,,,0.00,WUHU216HW,2013-06-25 13:27:00,
2013-06-25 06:32:00,49.9,47.9,27.30,SE,135,0.4,1.3,93,0.00,,,0.00,WUHU216HW,2013-06-25 13:32:00,
2013-06-25 06:37:00,50.4,48.4,27.30,ESE,113,0.0,1.3,93,0.00,,,0.00,WUHU216HW,2013-06-25 13:37:00,
2013-06-25 06:42:00,50.4,48.4,27.30,ESE,113,0.0,0.2,93,0.00,,,0.00,WUHU216HW,2013-06-25 13:42:00,
2013-06-25 06:47:00,50.8,48.8,27.30,ESE,113,0.0,1.3,93,0.00,,,0.00,WUHU216HW,2013-06-25 13:47:00,
2013-06-25 06:52:00,51.1,49.2,27.30,ESE,113,0.0,1.3,93,0.00,,,0.00,WUHU216HW,2013-06-25 13:52:00,
2013-06-25 06:57:00,51.3,49.3,27.30,SE,135,0.7,1.6,93,0.00,,,0.00,WUHU216HW,2013-06-25 13:57:00,
2013-06-25 07:02:00,51.8,50.1,27.30,SE,135,0.0,1.6,94,0.00,,,0.00,WUHU216HW,2013-06-25 14:02:00,
2013-06-25 07:07:00,52.2,50.5,27.30,SE,135,1.3,1.3,94,0.00,,,0.00,WUHU216HW,2013-06-25 14:07:00,
2013-06-25 07:12:00,52.6,50.9,27.30,SE,135,1.1,3.4,94,0.00,,,0.00,WUHU216HW,2013-06-25 14:12:00,
2013-06-25 07:17:00,52.7,50.4,27.30,SE,135,2.5,3.4,92,0.00,,,0.00,WUHU216HW,2013-06-25 14:17:00,
2013-06-25 07:22:00,53.1,51.1,27.30,SE,135,1.8,2.9,93,0.00,,,0.00,WUHU216HW,2013-06-25 14:22:00,
2013-06-25 07:27:00,53.3,51.3,27.30,ESE,113,0.7,2.9,93,0.00,,,0.00,WUHU216HW,2013-06-25 14:27:00,
2013-06-25 07:32:00,53.5,51.5,27.30,SE,135,0.7,1.8,93,0.00,,,0.00,WUHU216HW,2013-06-25 14:32:00,
2013-06-25 07:37:00,53.6,51.7,27.30,SE,135,1.1,2.2,93,0.00,,,0.00,WUHU216HW,2013-06-25 14:37:00,
2013-06-25 07:42:00,54.2,51.6,27.30,SE,135,1.8,2.2,91,0.00,,,0.00,WUHU216HW,2013-06-25 14:42:00,
2013-06-25 07:47:00,54.4,52.0,27.30,SE,135,1.6,2.0,92,0.00,,,0.00,WUHU216HW,2013-06-25 14:47:00,
2013-06-25 07:52:00,54.7,52.1,27.30,SE,135,1.1,2.0,91,0.00,,,0.00,WUHU216HW,2013-06-25 14:52:00,
2013-06-25 07:57:00,55.1,51.8,27.30,ESE,113,0.4,3.6,89,0.00,,,0.00,WUHU216HW,2013-06-25 14:57:00,
2013-06-25 08:02:00,55.6,52.4,27.30,ESE,113,2.7,3.6,89,0.00,,,0.00,WUHU216HW,2013-06-25 15:02:00,
2013-06-25 08:07:00,55.8,52.6,27.30,SE,135,0.7,2.7,89,0.00,,,0.00,WUHU216HW,2013-06-25 15:07:00,
2013-06-25 08:12:00,56.0,52.1,27.30,SE,135,3.1,3.1,87,0.00,,,0.00,WUHU216HW,2013-06-25 15:12:00,
2013-06-25 08:17:00,56.2,52.3,27.31,SE,135,2.2,3.8,87,0.00,,,0.00,WUHU216HW,2013-06-25 15:17:00,
2013-06-25 08:22:00,56.3,52.5,27.31,SE,135,2.2,3.8,87,0.00,,,0.00,WUHU216HW,2013-06-25 15:22:00,
2013-06-25 08:27:00,56.5,52.4,27.31,SE,135,1.1,2.5,86,0.00,,,0.00,WUHU216HW,2013-06-25 15:27:00,
2013-06-25 08:32:00,56.5,52.7,27.31,SE,135,1.6,2.5,87,0.00,,,0.00,WUHU216HW,2013-06-25 15:32:00,
2013-06-25 08:37:00,56.5,53.0,27.31,SSE,158,1.1,1.8,88,0.00,,,0.00,WUHU216HW,2013-06-25 15:37:00,
2013-06-25 08:42:00,56.7,52.6,27.31,SSE,158,1.1,2.7,86,0.00,,,0.00,WUHU216HW,2013-06-25 15:42:00,
2013-06-25 08:47:00,56.9,53.0,27.31,SE,135,1.6,2.7,87,0.00,,,0.00,WUHU216HW,2013-06-25 15:47:00,
2013-06-25 08:52:00,57.2,53.7,27.31,ESE,113,2.0,2.2,88,0.00,,,0.00,WUHU216HW,2013-06-25 15:52:00,
2013-06-25 08:57:00,57.4,53.3,27.31,ESE,113,2.2,4.0,86,0.00,,,0.00,WUHU216HW,2013-06-25 15:57:00,
2013-06-25 09:02:00,57.6,53.7,27.31,ENE,68,0.2,4.0,87,0.00,,,0.00,WUHU216HW,2013-06-25 16:02:00,
2013-06-25 09:07:00,57.8,53.7,27.31,SE,135,2.0,3.6,86,0.00,,,0.00,WUHU216HW,2013-06-25 16:07:00,
2013-06-25 09:12:00,58.0,53.8,27.31,SE,135,0.0,3.6,86,0.00,,,0.00,WUHU216HW,2013-06-25 16:12:00,
2013-06-25 09:17:00,58.1,53.6,27.31,SE,135,4.7,4.7,85,0.00,,,0.00,WUHU216HW,2013-06-25 16:17:00,
2013-06-25 09:22:00,58.3,54.2,27.31,ESE,113,1.3,4.7,86,0.00,,,0.00,WUHU216HW,2013-06-25 16:22:00,
2013-06-25 09:27:00,58.5,54.4,27.31,ESE,113,0.7,2.0,86,0.00,,,0.00,WUHU216HW,2013-06-25 16:27:00,
2013-06-25 09:32:00,58.7,54.6,27.30,ENE,68,0.0,2.0,86,0.00,,,0.00,WUHU216HW,2013-06-25 16:32:00,
2013-06-25 09:37:00,59.8,54.9,27.31,SE,135,1.1,2.5,84,0.00,,,0.00,WUHU216HW,2013-06-25 16:37:00,
2013-06-25 09:42:00,60.5,55.4,27.31,ENE,68,0.7,2.5,83,0.00,,,0.00,WUHU216HW,2013-06-25 16:42:00,
2013-06-25 09:47:00,61.6,55.4,27.31,SE,135,4.3,4.3,80,0.00,,,0.00,WUHU216HW,2013-06-25 16:47:00,
2013-06-25 09:52:00,61.9,55.7,27.31,East,90,0.9,4.3,80,0.00,,,0.00,WUHU216HW,2013-06-25 16:52:00,
2013-06-25 09:57:00,62.8,54.7,27.31,SE,135,2.0,3.1,75,0.00,,,0.00,WUHU216HW,2013-06-25 16:57:00,
2013-06-25 10:02:00,63.7,54.5,27.30,SE,135,2.5,3.6,72,0.00,,,0.00,WUHU216HW,2013-06-25 17:02:00,
2013-06-25 10:07:00,64.3,55.1,27.30,SSE,158,4.9,4.9,72,0.00,,,0.00,WUHU216HW,2013-06-25 17:07:00,
2013-06-25 10:12:00,64.3,55.1,27.30,SE,135,1.6,4.9,72,0.00,,,0.00,WUHU216HW,2013-06-25 17:12:00,
2013-06-25 10:17:00,64.8,54.0,27.31,SW,225,1.8,4.0,68,0.00,,,0.00,WUHU216HW,2013-06-25 17:17:00,
2013-06-25 10:22:00,65.0,55.8,27.30,ESE,113,0.9,4.0,72,0.00,,,0.00,WUHU216HW,2013-06-25 17:22:00,
2013-06-25 10:27:00,66.1,56.0,27.30,SSE,158,2.9,4.0,70,0.00,,,0.00,WUHU216HW,2013-06-25 17:27:00,
2013-06-25 10:32:00,66.6,54.8,27.30,SSE,158,2.0,4.0,66,0.00,,,0.00,WUHU216HW,2013-06-25 17:32:00,
2013-06-25 10:37:00,66.4,55.1,27.30,NE,45,1.1,4.0,67,0.00,,,0.00,WUHU216HW,2013-06-25 17:37:00,
2013-06-25 10:42:00,66.6,55.7,27.30,SE,135,1.1,2.9,68,0.00,,,0.00,WUHU216HW,2013-06-25 17:42:00,
2013-06-25 10:47:00,65.9,53.7,27.30,SSE,158,0.0,4.7,65,0.00,,,0.00,WUHU216HW,2013-06-25 17:47:00,
2013-06-25 10:52:00,65.7,54.5,27.30,ESE,113,2.5,4.7,67,0.00,,,0.00,WUHU216HW,2013-06-25 17:52:00,
2013-06-25 10:57:00,66.1,55.6,27.30,ENE,68,4.3,4.3,69,0.00,,,0.00,WUHU216HW,2013-06-25 17:57:00,
2013-06-25 11:02:00,65.9,53.4,27.30,South,180,2.5,4.3,64,0.00,,,0.00,WUHU216HW,2013-06-25 18:02:00,
2013-06-25 11:07:00,65.3,52.8,27.30,ESE,113,1.3,3.6,64,0.00,,,0.00,WUHU216HW,2013-06-25 18:07:00,
2013-06-25 11:12:00,65.2,53.1,27.30,South,180,1.8,1.8,65,0.00,,,0.00,WUHU216HW,2013-06-25 18:12:00,
2013-06-25 11:17:00,64.6,52.6,27.30,SSE,158,2.2,2.2,65,0.00,,,0.00,WUHU216HW,2013-06-25 18:17:00,
2013-06-25 11:22:00,64.3,53.5,27.31,SSW,203,0.2,2.2,68,0.00,,,0.00,WUHU216HW,2013-06-25 18:22:00,
2013-06-25 11:27:00,63.5,53.6,27.31,South,180,0.4,2.2,70,0.00,,,0.00,WUHU216HW,2013-06-25 18:27:00,
2013-06-25 11:32:00,62.6,53.5,27.32,ESE,113,2.2,2.2,72,0.01,,,0.00,WUHU216HW,2013-06-25 18:32:00,
2013-06-25 11:37:00,61.7,53.7,27.32,ESE,113,0.2,2.2,75,0.02,,,0.01,WUHU216HW,2013-06-25 18:37:00,
2013-06-25 11:42:00,61.2,54.7,27.32,SW,225,0.9,2.2,79,0.03,,,0.03,WUHU216HW,2013-06-25 18:42:00,
2013-06-25 11:47:00,60.7,54.9,27.32,SW,225,0.9,2.2,81,0.04,,,0.04,WUHU216HW,2013-06-25 18:47:00,
2013-06-25 11:52:00,60.1,55.0,27.32,SW,225,3.6,3.6,83,0.05,,,0.04,WUHU216HW,2013-06-25 18:52:00,
2013-06-25 11:57:00,59.4,53.9,27.33,SSW,203,1.6,3.8,82,0.06,,,0.06,WUHU216HW,2013-06-25 18:57:00,
2013-06-25 12:02:00,58.7,53.6,27.34,North,0,0.4,3.8,83,0.17,,,0.15,WUHU216HW,2013-06-25 19:02:00,
2013-06-25 12:07:00,58.0,52.8,27.34,WSW,248,0.4,0.9,83,0.26,,,0.26,WUHU216HW,2013-06-25 19:07:00,
2013-06-25 12:12:00,57.4,52.6,27.33,ESE,113,1.1,1.1,84,0.28,,,0.28,WUHU216HW,2013-06-25 19:12:00,
2013-06-25 12:17:00,57.1,52.2,27.34,ENE,68,0.0,1.1,84,0.30,,,0.29,WUHU216HW,2013-06-25 19:17:00,
2013-06-25 12:22:00,56.9,52.0,27.33,ENE,68,0.7,0.7,84,0.31,,,0.31,WUHU216HW,2013-06-25 19:22:00,
2013-06-25 12:27:00,56.9,52.4,27.32,West,270,0.2,0.7,85,0.33,,,0.33,WUHU216HW,2013-06-25 19:27:00,
2013-06-25 12:32:00,56.9,53.0,27.32,WSW,248,0.7,1.1,87,0.35,,,0.35,WUHU216HW,2013-06-25 19:32:00,
2013-06-25 12:37:00,57.2,53.1,27.32,WSW,248,0.4,1.1,86,0.33,,,0.35,WUHU216HW,2013-06-25 19:37:00,
2013-06-25 12:42:00,58.3,54.8,27.32,WSW,248,1.1,1.1,88,0.33,,,0.35,WUHU216HW,2013-06-25 19:42:00,
2013-06-25 12:47:00,59.4,55.9,27.32,ENE,68,0.9,1.1,88,0.31,,,0.35,WUHU216HW,2013-06-25 19:47:00,
2013-06-25 12:52:00,60.3,56.8,27.32,SW,225,2.7,2.7,88,0.30,,,0.35,WUHU216HW,2013-06-25 19:52:00,
2013-06-25 12:57:00,60.5,56.6,27.32,SW,225,0.9,2.7,87,0.24,,,0.35,WUHU216HW,2013-06-25 19:57:00,
2013-06-25 13:02:00,60.8,57.0,27.32,SW,225,0.9,1.1,87,0.11,,,0.35,WUHU216HW,2013-06-25 20:02:00,
2013-06-25 13:07:00,61.2,56.7,27.32,West,270,1.6,1.8,85,0.09,,,0.35,WUHU216HW,2013-06-25 20:07:00,
2013-06-25 13:12:00,61.2,56.3,27.32,East,90,0.0,1.8,84,0.06,,,0.35,WUHU216HW,2013-06-25 20:12:00,
2013-06-25 13:17:00,61.7,57.5,27.31,WSW,248,0.4,1.8,86,0.04,,,0.35,WUHU216HW,2013-06-25 20:17:00,
2013-06-25 13:22:00,62.3,58.1,27.31,South,180,0.4,1.1,86,0.03,,,0.35,WUHU216HW,2013-06-25 20:22:00,
2013-06-25 13:27:00,62.3,57.3,27.32,WSW,248,1.6,2.5,84,0.01,,,0.35,WUHU216HW,2013-06-25 20:27:00,
2013-06-25 13:32:00,62.6,56.7,27.32,SE,135,0.0,2.9,81,0.00,,,0.35,WUHU216HW,2013-06-25 20:32:00,
2013-06-25 13:37:00,62.8,57.3,27.32,WSW,248,1.6,2.9,82,0.00,,,0.35,WUHU216HW,2013-06-25 20:37:00,
2013-06-25 13:42:00,63.0,57.4,27.32,WSW,248,0.7,2.7,82,0.00,,,0.35,WUHU216HW,2013-06-25 20:42:00,
2013-06-25 13:47:00,63.0,57.1,27.32,SSW,203,1.1,4.0,81,0.00,,,0.35,WUHU216HW,2013-06-25 20:47:00,
2013-06-25 13:52:00,62.5,56.2,27.32,WSW,248,1.1,4.0,80,0.00,,,0.35,WUHU216HW,2013-06-25 20:52:00,
2013-06-25 13:57:00,62.1,56.2,27.32,SSE,158,0.0,2.5,81,0.00,,,0.35,WUHU216HW,2013-06-25 20:57:00,
2013-06-25 14:02:00,61.9,56.1,27.32,WSW,248,1.8,1.8,81,0.00,,,0.35,WUHU216HW,2013-06-25 21:02:00,
2013-06-25 14:07:00,61.9,56.1,27.32,SW,225,0.9,1.8,81,0.00,,,0.35,WUHU216HW,2013-06-25 21:07:00,
2013-06-25 14:12:00,61.9,56.1,27.32,WSW,248,1.1,1.1,81,0.00,,,0.35,WUHU216HW,2013-06-25 21:12:00,
2013-06-25 14:17:00,61.9,56.3,27.32,SW,225,0.4,1.1,82,0.00,,,0.35,WUHU216HW,2013-06-25 21:17:00,
2013-06-25 14:22:00,62.1,56.9,27.33,SW,225,1.1,1.1,83,0.00,,,0.35,WUHU216HW,2013-06-25 21:22:00,
2013-06-25 14:27:00,62.1,56.2,27.33,SW,225,0.4,1.1,81,0.00,,,0.35,WUHU216HW,2013-06-25 21:27:00,
2013-06-25 14:32:00,61.9,56.1,27.33,WSW,248,1.8,1.8,81,0.00,,,0.35,WUHU216HW,2013-06-25 21:32:00,
2013-06-25 14:37:00,61.6,55.4,27.33,WSW,248,3.1,3.1,80,0.00,,,0.35,WUHU216HW,2013-06-25 21:37:00,
2013-06-25 14:42:00,61.6,55.7,27.32,WSW,248,1.8,3.1,81,0.00,,,0.35,WUHU216HW,2013-06-25 21:42:00,
2013-06-25 14:47:00,61.9,56.7,27.32,WSW,248,2.2,2.2,83,0.00,,,0.35,WUHU216HW,2013-06-25 21:47:00,
2013-06-25 14:52:00,63.2,56.5,27.32,WSW,248,3.4,3.4,79,0.00,,,0.35,WUHU216HW,2013-06-25 21:52:00,
2013-06-25 14:57:00,63.5,57.2,27.32,WSW,248,1.1,3.4,80,0.00,,,0.35,WUHU216HW,2013-06-25 21:57:00,
2013-06-25 15:02:00,64.1,57.8,27.32,SW,225,0.4,3.4,80,0.00,,,0.35,WUHU216HW,2013-06-25 22:02:00,
2013-06-25 15:07:00,64.4,58.1,27.32,SSW,203,2.5,2.7,80,0.00,,,0.35,WUHU216HW,2013-06-25 22:07:00,
2013-06-25 15:12:00,65.2,58.5,27.32,WSW,248,2.7,2.7,79,0.00,,,0.35,WUHU216HW,2013-06-25 22:12:00,
2013-06-25 15:17:00,65.3,57.6,27.32,SW,225,1.1,2.9,76,0.00,,,0.35,WUHU216HW,2013-06-25 22:17:00,
2013-06-25 15:22:00,65.2,56.3,27.32,SW,225,2.5,2.9,73,0.00,,,0.35,WUHU216HW,2013-06-25 22:22:00,
2013-06-25 15:27:00,65.7,57.2,27.32,SW,225,3.4,3.4,74,0.00,,,0.35,WUHU216HW,2013-06-25 22:27:00,
2013-06-25 15:32:00,66.4,57.1,27.32,SSW,203,3.4,4.3,72,0.00,,,0.35,WUHU216HW,2013-06-25 22:32:00,
2013-06-25 15:37:00,67.0,57.6,27.32,SSW,203,2.5,4.3,72,0.00,,,0.35,WUHU216HW,2013-06-25 22:37:00,
2013-06-25 15:42:00,66.4,57.1,27.32,SW,225,1.1,4.0,72,0.00,,,0.35,WUHU216HW,2013-06-25 22:42:00,
2013-06-25 15:47:00,65.9,55.8,27.33,SSW,203,3.1,4.3,70,0.00,,,0.35,WUHU216HW,2013-06-25 22:47:00,
2013-06-25 15:52:00,64.8,54.9,27.33,WSW,248,3.8,4.7,70,0.00,,,0.35,WUHU216HW,2013-06-25 22:52:00,
2013-06-25 15:57:00,64.6,55.1,27.33,SW,225,2.5,4.7,71,0.00,,,0.35,WUHU216HW,2013-06-25 22:57:00,
2013-06-25 16:02:00,65.3,56.8,27.33,SW,225,1.8,4.0,74,0.00,,,0.35,WUHU216HW,2013-06-25 23:02:00,
2013-06-25 16:07:00,65.9,55.5,27.33,SW,225,4.0,4.0,69,0.00,,,0.35,WUHU216HW,2013-06-25 23:07:00,
2013-06-25 16:12:00,66.1,56.0,27.33,SSW,203,0.9,4.0,70,0.00,,,0.35,WUHU216HW,2013-06-25 23:12:00,
2013-06-25 16:17:00,66.6,55.3,27.33,SW,225,1.6,5.8,67,0.00,,,0.35,WUHU216HW,2013-06-25 23:17:00,
2013-06-25 16:22:00,67.1,55.4,27.32,SSW,203,1.1,5.8,66,0.00,,,0.35,WUHU216HW,2013-06-25 23:22:00,
2013-06-25 16:27:00,67.9,55.6,27.32,WSW,248,3.6,4.7,65,0.00,,,0.35,WUHU216HW,2013-06-25 23:27:00,
2013-06-25 16:32:00,67.9,55.2,27.32,WSW,248,1.8,4.0,64,0.00,,,0.35,WUHU216HW,2013-06-25 23:32:00,
2013-06-25 16:37:00,67.0,54.4,27.32,SW,225,4.5,4.5,64,0.00,,,0.35,WUHU216HW,2013-06-25 23:37:00,
2013-06-25 16:42:00,66.6,54.5,27.32,SSW,203,1.8,4.5,65,0.00,,,0.35,WUHU216HW,2013-06-25 23:42:00,
2013-06-25 16:47:00,67.3,55.1,27.32,SW,225,2.0,4.7,65,0.00,,,0.35,WUHU216HW,2013-06-25 23:47:00,
2013-06-25 16:52:00,67.9,55.2,27.32,SW,225,2.5,4.7,64,0.00,,,0.35,WUHU216HW,2013-06-25 23:52:00,
2013-06-25 16:57:00,68.4,54.5,27.32,SW,225,3.4,4.0,61,0.00,,,0.35,WUHU216HW,2013-06-25 23:57:00,
2013-06-25 17:02:00,68.2,54.3,27.32,SSW,203,1.8,4.0,61,0.00,,,0.35,WUHU216HW,2013-06-26 00:02:00,
2013-06-25 17:07:00,67.7,54.2,27.32,SW,225,4.3,4.3,62,0.00,,,0.35,WUHU216HW,2013-06-26 00:07:00,
2013-06-25 17:12:00,67.3,54.3,27.32,SSW,203,1.3,4.3,63,0.00,,,0.35,WUHU216HW,2013-06-26 00:12:00,
2013-06-25 17:17:00,67.0,53.6,27.32,SW,225,2.9,4.3,62,0.00,,,0.35,WUHU216HW,2013-06-26 00:17:00,
2013-06-25 17:22:00,66.6,53.7,27.32,SSW,203,1.8,3.1,63,0.00,,,0.35,WUHU216HW,2013-06-26 00:22:00,
2013-06-25 17:27:00,66.4,54.3,27.32,SW,225,1.6,2.7,65,0.00,,,0.35,WUHU216HW,2013-06-26 00:27:00,
2013-06-25 17:32:00,66.2,54.1,27.32,SSW,203,2.2,2.2,65,0.00,,,0.35,WUHU216HW,2013-06-26 00:32:00,
2013-06-25 17:37:00,66.6,54.5,27.32,SW,225,2.2,3.6,65,0.00,,,0.35,WUHU216HW,2013-06-26 00:37:00,
2013-06-25 17:42:00,67.1,54.1,27.32,SW,225,2.5,3.6,63,0.00,,,0.35,WUHU216HW,2013-06-26 00:42:00,
2013-06-25 17:47:00,66.6,53.7,27.32,SSW,203,2.2,4.0,63,0.00,,,0.35,WUHU216HW,2013-06-26 00:47:00,
2013-06-25 17:52:00,66.2,54.1,27.32,South,180,1.3,4.0,65,0.00,,,0.35,WUHU216HW,2013-06-26 00:52:00,
2013-06-25 17:57:00,65.9,53.7,27.32,SW,225,1.8,2.2,65,0.00,,,0.35,WUHU216HW,2013-06-26 00:57:00,
2013-06-25 18:02:00,65.5,53.4,27.33,SW,225,0.9,2.9,65,0.00,,,0.35,WUHU216HW,2013-06-26 01:02:00,
2013-06-25 18:07:00,65.2,53.5,27.33,SSE,158,1.1,2.9,66,0.00,,,0.35,WUHU216HW,2013-06-26 01:07:00,
2013-06-25 18:12:00,65.0,53.3,27.32,SSE,158,0.2,1.1,66,0.00,,,0.35,WUHU216HW,2013-06-26 01:12:00,
2013-06-25 18:17:00,65.2,53.5,27.32,SE,135,1.1,1.3,66,0.00,,,0.35,WUHU216HW,2013-06-26 01:17:00,
2013-06-25 18:22:00,65.3,53.6,27.32,SSE,158,1.3,4.0,66,0.00,,,0.35,WUHU216HW,2013-06-26 01:22:00,
2013-06-25 18:27:00,65.3,53.3,27.33,South,180,3.1,4.0,65,0.00,,,0.35,WUHU216HW,2013-06-26 01:27:00,
2013-06-25 18:32:00,65.2,53.9,27.33,ESE,113,0.2,3.1,67,0.00,,,0.35,WUHU216HW,2013-06-26 01:32:00,
2013-06-25 18:37:00,65.2,54.4,27.33,SSE,158,1.6,2.2,68,0.00,,,0.35,WUHU216HW,2013-06-26 01:37:00,
2013-06-25 18:42:00,65.2,54.4,27.33,SW,225,1.8,2.2,68,0.00,,,0.35,WUHU216HW,2013-06-26 01:42:00,
2013-06-25 18:47:00,65.0,54.6,27.33,South,180,0.4,2.2,69,0.00,,,0.35,WUHU216HW,2013-06-26 01:47:00,
2013-06-25 18:52:00,65.2,54.4,27.33,SSW,203,1.1,2.7,68,0.00,,,0.35,WUHU216HW,2013-06-26 01:52:00,
2013-06-25 18:57:00,65.3,54.1,27.33,ESE,113,0.7,2.7,67,0.00,,,0.35,WUHU216HW,2013-06-26 01:57:00,
2013-06-25 19:02:00,65.5,53.8,27.33,SE,135,3.1,3.1,66,0.00,,,0.35,WUHU216HW,2013-06-26 02:02:00,
2013-06-25 19:07:00,65.5,52.6,27.33,SSW,203,3.8,3.8,63,0.00,,,0.35,WUHU216HW,2013-06-26 02:07:00,
2013-06-25 19:12:00,65.3,51.9,27.34,SSW,203,2.9,4.5,62,0.00,,,0.35,WUHU216HW,2013-06-26 02:12:00,
2013-06-25 19:17:00,65.0,52.5,27.34,SSE,158,0.4,4.5,64,0.00,,,0.35,WUHU216HW,2013-06-26 02:17:00,
2013-06-25 19:22:00,64.4,51.9,27.34,South,180,1.1,4.0,64,0.00,,,0.35,WUHU216HW,2013-06-26 02:22:00,
2013-06-25 19:27:00,64.3,51.8,27.34,SW,225,2.0,3.4,64,0.00,,,0.35,WUHU216HW,2013-06-26 02:27:00,
2013-06-25 19:32:00,64.1,51.2,27.34,SW,225,2.0,4.3,63,0.00,,,0.35,WUHU216HW,2013-06-26 02:32:00,
2013-06-25 19:37:00,63.7,50.9,27.34,SSW,203,1.1,4.3,63,0.00,,,0.35,WUHU216HW,2013-06-26 02:37:00,
2013-06-25 19:42:00,63.7,51.3,27.34,SSW,203,0.4,2.9,64,0.00,,,0.35,WUHU216HW,2013-06-26 02:42:00,
2013-06-25 19:47:00,63.7,50.9,27.34,SW,225,0.9,2.5,63,0.00,,,0.35,WUHU216HW,2013-06-26 02:47:00,
2013-06-25 19:52:00,63.7,51.3,27.34,SW,225,1.3,2.0,64,0.00,,,0.35,WUHU216HW,2013-06-26 02:52:00,
2013-06-25 19:57:00,63.7,51.3,27.34,SW,225,1.8,2.5,64,0.00,,,0.35,WUHU216HW,2013-06-26 02:57:00,
2013-06-25 20:02:00,63.4,51.0,27.34,SSW,203,1.1,2.5,64,0.00,,,0.35,WUHU216HW,2013-06-26 03:02:00,
2013-06-25 20:07:00,63.2,51.2,27.34,SSW,203,0.0,2.0,65,0.00,,,0.35,WUHU216HW,2013-06-26 03:07:00,
2013-06-25 20:12:00,63.0,51.0,27.35,SSE,158,0.0,1.1,65,0.00,,,0.35,WUHU216HW,2013-06-26 03:12:00,
2013-06-25 20:17:00,62.6,51.1,27.35,SW,225,0.0,0.7,66,0.00,,,0.35,WUHU216HW,2013-06-26 03:17:00,
2013-06-25 20:22:00,62.3,51.2,27.35,SW,225,0.0,0.7,67,0.00,,,0.35,WUHU216HW,2013-06-26 03:22:00,
2013-06-25 20:27:00,62.1,51.8,27.35,SW,225,0.0,0.0,69,0.00,,,0.35,WUHU216HW,2013-06-26 03:27:00,
2013-06-25 20:32:00,61.6,51.4,27.35,SW,225,0.0,0.0,69,0.00,,,0.35,WUHU216HW,2013-06-26 03:32:00,
2013-06-25 20:37:00,61.2,51.0,27.35,NNE,23,0.4,0.4,69,0.00,,,0.35,WUHU216HW,2013-06-26 03:37:00,
2013-06-25 20:42:00,60.8,51.1,27.35,NNE,23,0.0,0.4,70,0.00,,,0.35,WUHU216HW,2013-06-26 03:42:00,
2013-06-25 20:47:00,60.1,50.8,27.35,NNE,23,0.0,0.4,71,0.00,,,0.35,WUHU216HW,2013-06-26 03:47:00,
2013-06-25 20:52:00,59.8,50.8,27.35,NNE,23,0.0,0.2,72,0.00,,,0.35,WUHU216HW,2013-06-26 03:52:00,
2013-06-25 20:58:00,59.4,50.8,27.35,NNE,23,0.0,0.2,73,0.00,,,0.35,WUHU216HW,2013-06-26 03:58:00,
2013-06-25 21:01:00,59.0,50.4,27.35,NNE,23,0.0,0.2,73,0.00,,,0.35,WUHU216HW,2013-06-26 04:01:00,
2013-06-25 21:02:00,59.0,50.4,27.36,NNE,23,0.0,0.2,73,0.00,,,0.35,WUHU216HW,2013-06-26 04:02:00,
2013-06-25 21:07:00,58.3,50.0,27.36,NNE,23,0.2,0.2,74,0.00,,,0.35,WUHU216HW,2013-06-26 04:07:00,
2013-06-25 21:12:00,58.0,50.0,27.36,NNE,23,0.2,0.2,75,0.00,,,0.35,WUHU216HW,2013-06-26 04:12:00,
2013-06-25 21:17:00,57.6,50.0,27.36,NNE,23,0.0,0.2,76,0.00,,,0.35,WUHU216HW,2013-06-26 04:17:00,
2013-06-25 21:22:00,57.4,50.2,27.37,NNE,23,0.0,0.2,77,0.00,,,0.35,WUHU216HW,2013-06-26 04:22:00,
2013-06-25 21:27:00,57.2,50.0,27.37,NNE,23,0.0,0.4,77,0.00,,,0.35,WUHU216HW,2013-06-26 04:27:00,
2013-06-25 21:32:00,57.1,49.9,27.37,NNE,23,0.0,0.4,77,0.00,,,0.35,WUHU216HW,2013-06-26 04:32:00,
2013-06-25 21:37:00,56.7,49.9,27.37,NNE,23,0.0,0.4,78,0.00,,,0.35,WUHU216HW,2013-06-26 04:37:00,
2013-06-25 21:42:00,56.5,50.0,27.37,NNE,23,0.2,0.4,79,0.00,,,0.35,WUHU216HW,2013-06-26 04:42:00,
2013-06-25 21:47:00,56.2,49.7,27.37,NNE,23,0.0,0.7,79,0.00,,,0.35,WUHU216HW,2013-06-26 04:47:00,
2013-06-25 21:52:00,56.2,49.7,27.37,NNE,23,0.0,0.7,79,0.00,,,0.35,WUHU216HW,2013-06-26 04:52:00,
2013-06-25 21:57:00,56.0,49.9,27.38,NNE,23,0.0,0.4,80,0.00,,,0.35,WUHU216HW,2013-06-26 04:57:00,
2013-06-25 22:02:00,55.8,49.7,27.38,NNE,23,0.0,0.4,80,0.00,,,0.35,WUHU216HW,2013-06-26 05:02:00,
2013-06-25 22:07:00,55.8,49.7,27.37,NNE,23,0.0,0.0,80,0.00,,,0.35,WUHU216HW,2013-06-26 05:07:00,
2013-06-25 22:12:00,55.4,49.3,27.37,NE,45,0.0,0.0,80,0.00,,,0.35,WUHU216HW,2013-06-26 05:12:00,
2013-06-25 22:17:00,55.3,49.1,27.37,NE,45,0.0,0.0,80,0.00,,,0.35,WUHU216HW,2013-06-26 05:17:00,
2013-06-25 22:22:00,55.1,49.0,27.37,East,90,0.0,0.4,80,0.00,,,0.35,WUHU216HW,2013-06-26 05:22:00,
2013-06-25 22:27:00,54.7,49.0,27.38,East,90,0.0,0.4,81,0.00,,,0.35,WUHU216HW,2013-06-26 05:27:00,
2013-06-25 22:32:00,54.5,48.9,27.38,East,90,0.0,0.2,81,0.00,,,0.35,WUHU216HW,2013-06-26 05:32:00,
2013-06-25 22:37:00,54.4,49.0,27.38,East,90,0.0,0.4,82,0.00,,,0.35,WUHU216HW,2013-06-26 05:37:00,
2013-06-25 22:42:00,54.4,49.0,27.38,ENE,68,0.0,0.4,82,0.00,,,0.35,WUHU216HW,2013-06-26 05:42:00,
2013-06-25 22:47:00,54.2,48.8,27.38,ENE,68,0.0,0.4,82,0.00,,,0.35,WUHU216HW,2013-06-26 05:47:00,
2013-06-25 22:52:00,54.2,48.8,27.38,ENE,68,0.0,0.0,82,0.00,,,0.35,WUHU216HW,2013-06-26 05:52:00,
2013-06-25 22:57:00,54.0,48.6,27.39,ENE,68,0.0,0.0,82,0.00,,,0.35,WUHU216HW,2013-06-26 05:57:00,
2013-06-25 23:02:00,54.0,48.6,27.39,ENE,68,0.0,0.0,82,0.00,,,0.35,WUHU216HW,2013-06-26 06:02:00,
2013-06-25 23:07:00,53.8,48.8,27.39,ENE,68,0.0,0.0,83,0.00,,,0.35,WUHU216HW,2013-06-26 06:07:00,
2013-06-25 23:12:00,53.6,48.6,27.39,ENE,68,0.0,0.0,83,0.00,,,0.35,WUHU216HW,2013-06-26 06:12:00,
2013-06-25 23:17:00,53.6,48.6,27.39,ENE,68,0.0,0.0,83,0.00,,,0.35,WUHU216HW,2013-06-26 06:17:00,
2013-06-25 23:22:00,53.3,48.6,27.39,North,0,0.0,0.4,84,0.00,,,0.35,WUHU216HW,2013-06-26 06:22:00,
2013-06-25 23:27:00,52.9,48.3,27.39,North,0,0.0,0.4,84,0.00,,,0.35,WUHU216HW,2013-06-26 06:27:00,
2013-06-25 23:32:00,52.9,48.3,27.39,North,0,0.0,0.2,84,0.00,,,0.35,WUHU216HW,2013-06-26 06:32:00,
2013-06-25 23:37:00,52.7,48.1,27.39,ENE,68,0.0,0.0,84,0.00,,,0.35,WUHU216HW,2013-06-26 06:37:00,
2013-06-25 23:42:00,52.6,47.9,27.40,ESE,113,0.0,1.8,84,0.00,,,0.35,WUHU216HW,2013-06-26 06:42:00,
2013-06-25 23:47:00,52.4,47.7,27.40,ESE,113,0.2,1.8,84,0.00,,,0.35,WUHU216HW,2013-06-26 06:47:00,
2013-06-25 23:52:00,52.2,47.8,27.39,ESE,113,0.0,0.4,85,0.00,,,0.35,WUHU216HW,2013-06-26 06:52:00,
2013-06-25 23:57:00,52.2,47.8,27.40,ESE,113,0.0,0.4,85,0.00,,,0.35,WUHU216HW,2013-06-26 06:57:00,